Location: El Manguito
(10.2358°N, 67.3634°W)
Time: 10:19:58
(UTC+00:00)

Daily predictions for brighter satellites

Satellite Brightness Start Highest point End
(mag) Time Altitude Azimuth Time Altitude Azimuth Time Altitude Azimuth
Cosmos 1459 Rocket 4.0 22:50:40 10° N 22:56:44 63° E 23:02:52 10° SSE
Meteor 1-21 4.3 22:53:07 10° N 22:58:45 64° E 23:04:26 10° SSE
Cosmos 1626 3.3 22:59:42 10° NNW 23:03:05 46° W 23:06:29 10° SSW
Okean 3 4.0 22:59:03 10° N 23:03:16 67° W 23:07:30 10° S
GPS 2-18 Rocket1 3.3 23:00:03 10° SW 23:03:30 46° SSE 23:06:57 10° E
CZ-4B R/B 2.9 23:01:32 10° S 23:05:13 80° WSW 23:09:07 10° NNW
SWIFT 2.2 23:03:07 10° WSW 23:07:13 88° SSE 23:11:19 10° ENE
Okean 2 4.0 23:06:33 10° NNE 23:10:15 33° E 23:13:58 10° SSE
Cosmos 1271 Rocket 2.5 23:11:33 10° S 23:15:19 76° E 23:19:03 10° N
Iridium 4 Rocket 3.6 23:12:01 10° NNE 23:16:12 40° E 23:20:45 10° SSE
GEOS 3 Rocket 4.1 23:16:47 10° NNE 23:22:06 68° WNW 23:27:20 10° SW
CENTAUR R/B 3.4 23:13:04 10° NNW 23:22:10 74° ENE 23:31:01 10° SSE
Cosmos 2237 Rocket 2.9 23:19:29 10° N 23:24:25 32° ENE 23:29:12 11° SE
BREEZE-M DEB (TANK) 4.3 23:13:11 10° SW 23:27:21 86° NW 23:31:32 10° NE
CZ-4B R/B 3.9 23:23:04 10° SE 23:28:08 35° ENE 23:33:11 10° NNE
Cosmos 1725 Rocket 3.9 23:22:08 10° N 23:28:19 71° E 23:34:33 10° S
H-2A ROCKET BODY 1.7 23:21:22 10° SW 23:28:27 50° SSE 23:30:01 23° E
Cosmos 2219 Rocket 4.4 23:27:45 10° NW 23:32:25 27° WSW 23:37:04 10° SSW
Cosmos 2242 Rocket 3.8 23:29:11 10° N 23:33:39 74° W 23:38:05 10° S
PAYLOAD B 4.2 23:29:04 10° SSE 23:34:30 63° ENE 23:39:59 10° N
ARIANE 44L R/B 3.6 23:19:38 10° W 23:36:09 65° S 23:38:25 24° ESE
NOSS 3-2 (A) 4.3 23:30:26 10° NNW 23:39:09 88° ENE 23:48:14 10° SSE
PSLV R/B 3.7 23:37:45 10° SSE 23:41:43 70° ENE 23:45:39 10° N
Cosmos 1741 Rocket 3.9 23:36:51 10° N 23:42:03 82° ENE 23:47:16 10° SSE
Cosmos 1733 Rocket 4.3 23:38:28 10° SSW 23:42:34 44° W 23:46:39 10° NNW
EXPRESS MD2 2.8 23:41:35 10° NNW 23:43:58 48° NE 23:44:21 45° E
Cosmos 1470 2.6 23:42:31 10° S 23:46:25 79° E 23:50:18 10° N
Cosmos 2061 Rocket 4.0 23:40:10 10° N 23:46:32 88° E 23:52:50 10° S
Cosmos 1980 3.6 23:42:16 10° N 23:47:53 63° ENE 23:52:55 13° SSE
Cosmos 2016 Rocket 4.5 23:45:07 10° NNW 23:51:11 63° W 23:57:22 10° S
Meteor 1-12 Rocket 4.4 23:46:28 10° S 23:52:19 79° W 23:58:03 10° N
Ariane H10 3.1 23:50:53 10° WSW 23:53:21 24° S 23:53:27 24° S
CZ-4 R/B 1.2 23:52:53 43° SE 23:53:45 55° ENE 23:57:31 10° N
RESURS DK-1 3.3 23:49:57 10° SSW 23:53:54 48° WNW 23:57:50 10° N
